Location: Cantaing
(50.1487°N, 3.1675°E)
Time: 17:24:54
(UTC+00:00)

ISS - Pass Details

Date: 12 March 2026
Orbit: 416 x 425 km, 51.6° (Epoch: 18 April)

Event Time Altitude Azimuth Distance (km) Brightness Sun altitude
Rises 19:26:20 0° 223° (SW) 2,377 0.5 -16.5°
Reaches altitude 10° 19:28:33 10° 213° (SSW) 1,513 -0.7 -16.9°
Enters shadow 19:31:14 32° 164° (SSE) 760 -2.8 -17.3°
